Preview of NWS' New Version of Forecast
This preview is not operational and should not be used for support decisions.

Regional Weather Roundup (RWR)

Issued by National Weather Service (NWS)

                            
000
ASUS43 KBIS 200202
RWRND 

NORTH DAKOTA REGIONAL WEATHER ROUNDUP
NATIONAL WEATHER SERVICE BISMARCK ND
900 PM CDT WED JUN 19 2019

NOTE: "FAIR" INDICATES FEW OR NO CLOUDS BELOW 12,000 FEET WITH NO
SIGNIFICANT WEATHER AND/OR OBSTRUCTIONS TO VISIBILITY.


NDZ001>003-009>011-017-200300-
NORTHWEST NORTH DAKOTA
  
CITY           SKY/WX    TMP DP  RH WIND       PRES   REMARKS
WILLISTON      CLOUDY    63  51  65 SE13G32   29.67R                  
MINOT          CLEAR     65  47  52 E15       29.71F                  
MINOT AFB      CLEAR     64  49  58 SE12      29.70F                  
$$
 
NDZ018>021-031>035-040>046-200300-
SOUTHWEST NORTH DAKOTA
  
CITY           SKY/WX    TMP DP  RH WIND       PRES   REMARKS
BISMARCK       CLOUDY    59  54  83 E12       29.72F                  
DICKINSON      CLOUDY    57  54  89 E13       29.68R                  
GARRISON         N/A     59  53  80 SE12      29.71F                  
HETTINGER ARPT MOCLDY    61  56  83 E13       29.68S                  
$$
 
NDZ004>008-012>016-024-026-027-054-200300-
NORTHEAST NORTH DAKOTA
  
CITY           SKY/WX    TMP DP  RH WIND       PRES   REMARKS
GRAND FORKS    CLOUDY    67  53  61 S6        29.76R                  
GRND FRKS AFB  CLOUDY    63  56  79 SW6       29.77S                  
DEVILS LAKE    CLOUDY    63  51  65 S6        29.78S                  
$$
 
NDZ022-023-025-028>030-036>039-047>053-200300-
SOUTHEAST NORTH DAKOTA
  
CITY           SKY/WX    TMP DP  RH WIND       PRES   REMARKS
FARGO          CLOUDY    66  52  60 NW12      29.76S                  
JAMESTOWN      LGT RAIN  57  55  93 E6        29.77S                  
$$